DELTA 1 DEB, 10662

Orbit data source: Space-Track

DELTA 1 DEB, 10662 is space debris in SSO originally from a launch on Thu, 29 Jul 1976 UTC launched from the Air Force Western Test Range (AFWTR). Debris objects in space refer to the collection of defunct objects orbiting the Earth. Examples of debris include non-operational satellites, rocket bodies, and fragments generated from explosions, collisions, or faulty payload assembly.

Loading next visibility...
Identifier
10662, 1976-077Y
Orbit
SSO
Country
Flag of USUS
Related business
Manufacturer
Unknown
Mission
Spacecraft
Bus & Motor
Unknown
Mass
Unknown
Launch date (UTC)
1976-07-29 (50 years ago)
Launch vehicle
Unknown
Launch site
Air Force Western Test Range (AFWTR)
Object type
Payload
Rocket body
Debris
Shape & HBR
Unknown shape, 0.2 m
Radar Cross Section
Medium (>0.1 m² and <1 m²)

Expand to show TLE details & history
Last TLE update: 4 days ago

TLE from 4 days ago
0 DELTA 1 DEB
1 10662U 76077Y   26170.12407954 -.00000007  00000-0  11899-3 0  9999
2 10662 100.8053 222.0668 0250966 193.8440 192.0559 12.92199865337553
Epoch: 2026-06-19T02:58Z
TLE epoch observation values (Epoch: 2026-06-19T02:58:40.472Z)
Latitude
24.86401°
Longitude
-95.00887°
Altitude
1,484.101 km
Speed
7.036 km/s
True Right ascension
14h 28m 04s
True Declination
24° 44' 43"
Sunlit
Object was in daylight at epoch
Visualization orbit readout
Latitude
Unknown
Longitude
Unknown
Altitude
Unknown
Speed
Unknown
Apparent Right ascension
Unknown
Apparent Declination
Unknown
Sunlit
N/A
Visualization observer readout
Local Sidereal Time
08:40:01
Azimuth
Unknown
Elevation
Unknown
Doppler factor
Unknown
Orbital elements
Apogee altitude
1,482.69 km
Perigee altitude
1,097.79 km
Semi-major axis
7,668.377 km
Eccentricity
0.0251
Inclination
100.8053°
RAAN
222.0668°
Arg. of periapsis
193.844°
True anomaly
191.47314°
Mean anomaly
192.0559°
Eccentric anomaly
191.76276°
Mean motion
3.23212 °/min
Orbital period
111.38 mins
BSTAR
0.00011899
Loading maneuver chart data...
Computing Atmospheric mass density...
Loading historical data...
Loading historical data...
Loading historical data...
Loading historical data...
Loading historical data...
Loading historical data...
Loading historical data...

Documentation

Showing up to 5 results
|